AirNav   Air Wisconsin pilot careers
 
 1194 users online  

36S Happy Camp Airport
Happy Camp, California, USA

GOING TO HAPPY CAMP?


FAA INFORMATION EFFECTIVE 28 FEBRUARY 2019

Location

FAA Identifier: 36S
Lat/Long: 41-47-26.4460N / 123-23-20.2000W
41-47.440767N / 123-23.336667W
41.7906794 / -123.3889444
(estimated)
Elevation: 1209 ft. / 368.5 m (surveyed)
Variation: 18E (1985)
Time zone: UTC -8 (UTC -7 during Daylight Saving Time)
Zip code: 96039

Airport Operations

Airport use: Open to the public
Activation date: 10/1951
Control tower: no
ARTCC: SEATTLE CENTER
FSS: RANCHO MURIETA FLIGHT SERVICE STATION
NOTAMs facility: RIU (NOTAM-D service available)
Attendance: UNATNDD
Wind indicator: yes
Segmented circle: yes

Airport Communications

CTAF: 122.9

Nearby radio navigation aids

VOR radial/distance  VOR name  Freq  Var
FJSr289/33.2FORT JONES VOR/DME109.6019E
CECr075/38.1CRESCENT CITY VORTAC109.0014E

Airport Services

Parking: tiedowns
Airframe service: NONE
Powerplant service: NONE
Bottled oxygen: NONE
Bulk oxygen: NONE

Runway Information

Runway 4/22

Dimensions: 3000 x 50 ft. / 914 x 15 m
Surface: asphalt, in fair condition
Weight bearing capacity: 
Single wheel: 30.0
RUNWAY 4  RUNWAY 22
Latitude: 41-47.298167N41-47.563167N
Longitude: 123-23.608667W123-23.051333W
Traffic pattern: rightleft
Markings: basic, in fair conditionbasic, in fair condition
Runway end identifier lights: nono
Obstructions: 25 ft. tree, 500 ft. from runway, 120 ft. left of centerline, 12:1 slope to clear
RWY 04 HAS 3 FT FENCE O FEET FROM RWY END AND 80 FEET L.
10 ft. brush, 200 ft. from runway, 125 ft. right of centerline
RY 22 HAS 8 FT SHRUB 0 FEET FM RY END AND 115 FT RIGHT.

Airport Ownership and Management from official FAA records

Ownership: Publicly-owned
Owner: U.S. FOREST SERVICE
63822 HIGHWAY 96
HAPPY CAMP, CA 96039-0377
Phone 530-493-1730
OPERD/MAINTD BYCOUNTY OF SISKIYOU COUNTY.
Manager: MELISSA CUMMINS
190 GREENHORN ROAD
YREKA, CA 96097
Phone (530) 842-8220
DIRECTOR OF AIRPORTS OFFICE IN YREKA.

Airport Operational Statistics

Aircraft operations: 150/year *
100% transient general aviation
* for 12-month period ending 31 December 2017

Additional Remarks

E94 US FOREST SERVICE.
RWY 22 HAS +35' TREES 600' FROM THLD 125' EITHER SIDE OF CNTRLN.
A93 US FOREST SVC MANS HELIPORT MAY THROUGH SEP.

Instrument Procedures

There are no published instrument procedures at 36S.

Some nearby airports with instrument procedures:

KCEC - Jack Mc Namara Field Airport (38 nm W)
KSIY - Siskiyou County Airport (41 nm E)
KMFR - Rogue Valley International - Medford Airport (42 nm NE)
3S8 - Grants Pass Airport (43 nm N)
O46 - Weed Airport (46 nm SE)
 
Loc | Ops | Rwys | IFR | FBO | Links
Com | Nav | Svcs | Stats | Notes
Area around 36S (Happy Camp Airport)
 
Road maps at: MapQuest Bing Google
 
Aerial photo
WARNING: Photo may not be current or correct
Aerial photo of 36S (Happy Camp Airport)
Do you have a better or more recent aerial photo of Happy Camp Airport that you would like to share? If so, please send us your photo.

 
Sectional chart

 
Airport distance calculator
Flying to Happy Camp Airport? Find the distance to fly.

From to 36S

Sunrise and sunset
Times for 26-Mar-2019
 Local
(UTC-7)
 Zulu
(UTC)
Morning civil twilight06:4013:40
Sunrise07:0714:07
Sunset19:3102:31
Evening civil twilight19:5902:59

Current date and time
Zulu (UTC)  26-Mar-2019 21:38:05
Local (UTC-7)  26-Mar-2019 14:38:05
 
METAR
3S4 
23nm NW 
SuperAWOS
262055Z AUTO 00000KT 10SM 07/07 A3000
KCEC 
37nm W 
262056Z AUTO 23007KT 10SM CLR 12/06 A3001 RMK AO2 SLP162 T01220056 56010
S03 
40nm NE 
SuperAWOS
262115Z AUTO 24006KT 10SM 11/06 A2998
KSIY 
41nm E 
262053Z AUTO 23003KT 10SM CLR 10/02 A2998 RMK AO2 SLP168 T01000017 58015
KMFR 
42nm NE 
262053Z 00000KT 10SM FEW020 BKN100 10/03 A2998 RMK AO2 SLP154 T01000033 58024
K3S8 
43nm N 
262115Z AUTO 00000KT 10SM CLR 11/03 A3000 RMK AO2
KBOK 
44nm NW 
262056Z AUTO 17005KT 10SM CLR 12/04 A3001 RMK AO2 SLP179 T01170039 56009
TAF
KCEC 
37nm W 
261736Z 2618/2718 18007KT P6SM OVC200 FM270300 08006KT P6SM SCT050 OVC120 FM271100 08008KT P6SM -RA OVC050 FM271500 17013G23KT 6SM RA SCT015 OVC030
KMFR 
42nm NE 
261727Z 2618/2718 00000KT P6SM BKN007 OVC014 TEMPO 2618/2619 BKN015 BKN200 FM261900 VRB03KT P6SM SCT020 BKN200 FM262300 30005KT P6SM SCT090 BKN200 FM270200 VRB04KT P6SM BKN080 BKN200 FM271200 14006KT P6SM VCSH BKN060 OVC080 FM271600 14009G18KT P6SM VCSH BKN060 OVC080
NOTAMs
Click for the latest NOTAMs
NOTAMs are issued by the DoD/FAA and will open in a separate window not controlled by AirNav.

 

 
 

Would you like to see your business listed on this page?

 If your business provides an interesting product or service to pilots, flight crews, aircraft, or users of the Happy Camp Airport, you should consider listing it here.  To start the listing process, click on the button below
 
Add a business
 

Other Pages about Happy Camp Airport

Update a link
 
Copyright © AirNav, LLC. All rights reserved. Privacy Policy  Contact